Location: Ar Ranvel
(48.3000°N, 4.8833°W)
Time: 17:39:02
(UTC+00:00)

Cosmos 2322 Rocket - Pass Details

Date: 25 October 2021
Orbit: 832 x 851 km, 71.0° (Epoch: 27 November)

Event Time Altitude Azimuth Distance (km) Brightness Sun altitude
Exits shadow 04:46:05 36° 221° (SW) 1,307 2.8 -21.9°
Drops below altitude 10° 04:50:06 10° 184° (S) 2,464 4.5 -21.3°
Sets 04:52:39 0° 177° (S) 3,398 5.3 -20.8°
